CW5619 Weather Reports


time (UTC)temp
C
wind
direction
speed
KPH
gust
KPH
rain 1hr
cm
rain 24hr
cm
rain mn
cm
humidity
%
barometer
mb
20260903220402 34 229 3.2 14.5 0.00 0.00 0.00 40 1012.1
20260903215903 35 232 4.8 14.5 0.00 0.00 0.00 40 1012.1
20260903215402 35 228 3.2 11.3 0.00 0.00 0.00 38 1012.1
20260903214902 35 218 3.2 11.3 0.00 0.00 0.00 39 1012.2
20260903214402 35 209 6.4 11.3 0.00 0.00 0.00 39 1012.2
20260903213403 36 5 3.2 9.7 0.00 0.00 0.00 38 1012.2
20260903212903 35 179 3.2 12.9 0.00 0.00 0.00 38 1012.3
20260903212403 35 172 3.2 12.9 0.00 0.00 0.00 39 1012.3
20260903211902 35 10 4.8 12.9 0.00 0.00 0.00 39 1012.4
20260903211403 35 69 1.6 8.0 0.00 0.00 0.00 39 1012.5
20260903210403 35 51 1.6 9.7 0.00 0.00 0.00 40 1012.6
20260903205402 34 303 1.6 12.9 0.00 0.00 0.00 40 1012.8
20260903204902 33 98 1.6 8.0 0.00 0.00 0.00 41 1012.8
20260903204402 34 304 3.2 8.0 0.00 0.00 0.00 41 1012.9
20260903203903 33 110 1.6 11.3 0.00 0.00 0.00 42 1013.1
20260903203403 33 217 4.8 11.3 0.00 0.00 0.00 41 1013.1
20260903202903 33 193 3.2 11.3 0.00 0.00 0.00 40 1013.1
20260903202403 35 230 6.4 9.7 0.00 0.00 0.00 39 1013.2
20260903201402 34 9 3.2 9.7 0.00 0.00 0.00 39 1013.5
20260903200902 35 203 3.2 9.7 0.00 0.00 0.00 40 1013.5
20260903195903 34 222 3.2 9.7 0.00 0.00 0.00 41 1013.7
20260903195403 34 316 3.2 11.3 0.00 0.00 0.00 41 1013.8
20260903194902 34 240 4.8 14.5 0.00 0.00 0.00 41 1013.8
20260903194402 34 205 4.8 14.5 0.00 0.00 0.00 41 1013.8
20260903193903 34 341 3.2 12.9 0.00 0.00 0.00 40 1013.9
20260903192902 34 26 3.2 4.8 0.00 0.00 0.00 41 1014.1
20260903192402 34 346 3.2 4.8 0.00 0.00 0.00 41 1014.2
20260903191903 34 325 1.6 4.8 0.00 0.00 0.00 41 1014.3
20260903191403 33 84 3.2 4.8 0.00 0.00 0.00 42 1014.3
20260903190902 33 62 1.6 8.0 0.00 0.00 0.00 43 1014.4
20260903190402 32 97 1.6 9.7 0.00 0.00 0.00 44 1014.5
20260903185902 32 183 3.2 9.7 0.00 0.00 0.00 43 1014.6
20260903184903 32 200 3.2 4.8 0.00 0.00 0.00 45 1014.8
20260903184403 32 196 3.2 8.0 0.00 0.00 0.00 45 1014.8
20260903183903 32 127 3.2 8.0 0.00 0.00 0.00 46 1014.9
20260903183402 32 67 1.6 4.8 0.00 0.00 0.00 46 1015.0
20260903182902 32 80 3.2 4.8 0.00 0.00 0.00 45 1015.2
20260903181903 32 230 3.2 4.8 0.00 0.00 0.00 46 1015.3
20260903181403 31 42 3.2 4.8 0.00 0.00 0.00 49 1015.4
20260903180902 31 57 3.2 9.7 0.00 0.00 0.00 50 1015.4
20260903175402 31 184 1.6 4.8 0.00 0.00 0.00 48 1015.7
20260903174903 31 68 1.6 9.7 0.00 0.00 0.00 49 1015.8
20260903174403 31 34 3.2 11.3 0.00 0.00 0.00 50 1015.8
20260903173402 31 78 4.8 11.3 0.00 0.00 0.00 51 1016.0
20260903171902 29 197 1.6 4.8 0.00 0.00 0.00 54 1015.8
20260903171403 29 152 1.6 8.0 0.00 0.00 0.00 55 1015.7
20260903170902 28 232 3.2 8.0 0.00 0.00 0.00 55 1015.7
20260903170403 28 212 3.2 4.8 0.00 0.00 0.00 55 1015.7
20260903165902 28 182 1.6 4.8 0.00 0.00 0.00 55 1015.8
20260903164903 28 204 0.0 9.7 0.00 0.00 0.00 57 1015.7
20260903164403 28 226 1.6 9.7 0.00 0.00 0.00 57 1015.8
20260903163902 28 214 3.2 8.0 0.00 0.00 0.00 57 1015.7
20260903163402 28 223 3.2 8.0 0.00 0.00 0.00 57 1015.7
20260903162403 28 230 4.8 12.9 0.00 0.00 0.00 58 1015.7
20260903161403 28 223 4.8 8.0 0.00 0.00 0.00 60 1015.8
20260903160903 28 230 4.8 4.8 0.00 0.00 0.00 62 1015.8
20260903160402 28 228 3.2 4.8 0.00 0.00 0.00 61 1015.8
20260903155902 28 214 1.6 4.8 0.00 0.00 0.00 59 1015.9
20260903155403 28 11 1.6 4.8 0.00 0.00 0.00 55 1015.8
20260903154902 28 57 1.6 4.8 0.00 0.00 0.00 57 1015.8
20260903154402 28 113 1.6 9.7 0.00 0.00 0.00 56 1015.8
20260903153903 28 98 3.2 9.7 0.00 0.00 0.00 56 1015.7
20260903153402 28 64 1.6 4.8 0.00 0.00 0.00 58 1015.6
20260903152403 27 99 1.6 4.8 0.00 0.00 0.00 61 1015.7
20260903151402 27 43 0.0 4.8 0.00 0.00 0.00 61 1015.7
20260903150902 27 41 3.2 4.8 0.00 0.00 0.00 60 1015.7
20260903145402 26 66 3.2 11.3 0.00 0.00 0.00 65 1015.6
20260903144903 26 76 3.2 9.7 0.00 0.00 0.00 66 1015.8
20260903144403 26 45 1.6 9.7 0.00 0.00 0.00 66 1015.7
20260903143402 25 43 3.2 4.8 0.00 0.00 0.00 70 1015.6
20260903142904 25 74 1.6 4.8 0.00 0.00 0.00 71 1015.7
20260903141902 25 39 1.6 4.8 0.00 0.00 0.00 73 1015.9
20260903141402 25 349 1.6 8.0 0.00 0.00 0.00 74 1015.9
20260903140902 24 15 1.6 8.0 0.00 0.00 0.00 75 1016.0
20260903140402 24 14 1.6 4.8 0.00 0.00 0.00 76 1016.0
20260903135903 24 341 1.6 4.8 0.00 0.00 0.00 76 1015.9
20260903135403 25 277 1.6 4.8 0.00 0.00 0.00 75 1015.9
20260903134902 25 313 1.6 4.8 0.00 0.00 0.00 74 1016.1
20260903134403 25 284 1.6 9.7 0.00 0.00 0.00 72 1016.0
20260903133902 25 277 1.6 9.7 0.00 0.00 0.00 71 1015.9
20260903132902 26 267 3.2 4.8 0.00 0.00 0.00 67 1015.9
20260903132403 26 237 3.2 9.7 0.00 0.00 0.00 64 1015.8
20260903131903 26 217 1.6 12.9 0.00 0.00 0.00 63 1015.7
20260903131403 26 241 4.8 12.9 0.00 0.00 0.00 62 1015.6
20260903130902 26 232 3.2 4.8 0.00 0.00 0.00 63 1015.4
20260903130403 26 242 0.0 4.8 0.00 0.00 0.00 64 1015.4
20260903125902 27 237 3.2 4.8 0.00 0.00 0.00 62 1015.4
20260903124903 27 226 0.0 4.8 0.00 0.00 0.00 63 1015.3
20260903123902 27 209 1.6 4.8 0.00 0.00 0.00 64 1015.0
20260903123402 27 236 0.0 4.8 0.00 0.00 0.00 63 1015.0
20260903122902 27 211 1.6 9.7 0.00 0.00 0.00 63 1015.0
20260903122402 27 216 3.2 9.7 0.00 0.00 0.00 63 1014.9
20260903121903 27 206 3.2 9.7 0.00 0.00 0.00 63 1014.9
20260903120903 27 235 1.6 4.8 0.00 0.00 0.00 62 1014.8
20260903114403 27 121 1.6 4.8 0.00 0.00 0.00 62 1014.4
20260903113902 27 132 1.6 4.8 0.00 0.00 0.00 62 1014.4
20260903113402 27 89 1.6 8.0 0.00 0.00 0.00 62 1014.4
20260903112403 27 127 1.6 4.8 0.00 0.00 0.00 63 1014.3
20260903111903 27 116 1.6 4.8 0.00 0.00 0.00 63 1014.2
20260903111402 27 106 0.0 4.8 0.00 0.00 0.00 63 1014.3
20260903110903 27 111 1.6 9.7 0.00 0.00 0.00 63 1014.3
20260903110402 27 121 1.6 9.7 0.00 0.00 0.00 63 1014.3
20260903105903 27 136 3.2 9.7 0.00 0.00 0.00 63 1014.2
20260903105403 27 119 1.6 9.7 0.00 0.00 0.00 63 1014.3
20260903104903 27 136 3.2 9.7 0.00 0.00 0.00 63 1014.3
20260903104403 27 101 1.6 9.7 0.00 0.00 0.00 63 1014.3
20260903103903 27 97 3.2 11.3 0.00 0.00 0.00 63 1014.4
20260903103403 27 123 3.2 11.3 0.00 0.00 0.00 63 1014.5
20260903102403 27 112 1.6 9.7 0.00 0.00 0.00 62 1014.4
20260903101902 27 127 3.2 8.0 0.00 0.00 0.00 62 1014.4
20260903100903 27 110 3.2 9.7 0.00 0.00 0.00 61 1014.4
20260903100402 27 117 1.6 4.8 0.00 0.00 0.00 61 1014.4
20260903095403 27 114 0.0 3.2 0.00 0.00 0.00 61 1014.3
20260903094902 27 93 0.0 1.6 0.00 0.00 0.00 62 1014.4
20260903094403 27 90 0.0 1.6 0.00 0.00 0.00 62 1014.4
20260903093903 27 90 0.0 1.6 0.00 0.00 0.00 62 1014.4
20260903093402 27 90 0.0 1.6 0.00 0.00 0.00 61 1014.4
20260903092903 28 90 0.0 1.6 0.00 0.00 0.00 61 1014.5
20260903092403 27 90 0.0 1.6 0.00 0.00 0.00 61 1014.5
20260903091903 28 90 0.0 1.6 0.00 0.00 0.00 60 1014.5
20260903090405 28 90 0.0 1.6 0.00 0.00 0.00 58 1014.6
20260903085902 28 90 0.0 1.6 0.00 0.00 0.00 57 1014.7
20260903085402 28 90 0.0 1.6 0.00 0.00 0.00 57 1014.7
20260903084903 28 90 0.0 1.6 0.00 0.00 0.00 56 1014.6
20260903083902 28 90 0.0 1.6 0.00 0.00 0.00 56 1014.7
20260903083403 28 90 0.0 1.6 0.00 0.00 0.00 55 1014.7
20260903082902 28 90 0.0 1.6 0.00 0.00 0.00 54 1014.7
20260903082405 28 89 0.0 1.6 0.00 0.00 0.00 54 1014.8
20260903081903 28 215 0.0 1.6 0.00 0.00 0.00 53 1014.8
20260903080902 28 254 0.0 4.8 0.00 0.00 0.00 53 1014.8
20260903080403 28 246 0.0 4.8 0.00 0.00 0.00 53 1014.8
20260903075902 28 120 1.6 4.8 0.00 0.00 0.00 54 1014.8
20260903075402 28 114 1.6 4.8 0.00 0.00 0.00 53 1014.8
20260903074903 28 188 1.6 4.8 0.00 0.00 0.00 54 1014.9
20260903073902 28 221 0.0 4.8 0.00 0.00 0.00 54 1014.9
20260903072903 29 223 3.2 4.8 0.00 0.00 0.00 54 1014.8
20260903072402 29 228 3.2 4.8 0.00 0.00 0.00 53 1014.8
20260903071902 29 245 1.6 4.8 0.00 0.00 0.00 53 1014.8
20260903070403 29 241 1.6 4.8 0.00 0.00 0.00 54 1014.8
20260903065402 29 246 0.0 1.6 0.00 0.00 0.00 54 1014.6
20260903064903 29 246 0.0 3.2 0.00 0.00 0.00 54 1014.6
20260903064402 29 246 0.0 3.2 0.00 0.00 0.00 54 1014.5
20260903063902 29 246 1.6 3.2 0.00 0.00 0.00 55 1014.5
20260903063402 29 259 0.0 3.2 0.00 0.00 0.00 54 1014.5
20260903062403 29 296 0.0 1.6 0.00 0.00 0.00 54 1014.5
20260903061902 29 275 0.0 4.8 0.00 0.00 0.00 54 1014.6
20260903061402 29 231 1.6 4.8 0.00 0.00 0.00 54 1014.6
20260903060402 29 249 0.0 4.8 0.00 0.00 0.00 53 1014.6
20260903055903 29 238 0.0 4.8 0.00 0.00 0.00 52 1014.7
20260903055402 29 260 0.0 3.2 0.00 0.00 0.00 52 1014.7
20260903054903 30 260 0.0 3.2 0.00 0.00 0.00 51 1014.8
20260903054403 29 260 0.0 4.8 0.00 0.00 0.00 52 1014.8
20260903052402 30 71 0.0 3.2 0.00 0.00 0.00 52 1014.9
20260903051907 30 71 0.0 4.8 0.00 0.00 0.00 52 1014.8
20260903051402 30 83 1.6 4.8 0.00 0.00 0.00 51 1014.8
20260903050902 30 87 1.6 3.2 0.00 0.00 0.00 51 1014.8
20260903044402 30 204 0.0 4.8 0.00 0.00 0.00 50 1014.6
20260903043903 30 175 1.6 4.8 0.00 0.00 0.00 50 1014.6
20260903043403 30 140 1.6 8.0 0.00 0.00 0.00 50 1014.6
20260903042903 30 109 1.6 8.0 0.00 0.00 0.00 50 1014.5
20260903042403 30 118 1.6 8.0 0.00 0.00 0.00 49 1014.6
20260903041902 30 179 1.6 8.0 0.00 0.00 0.00 48 1014.6
20260903040903 30 105 3.2 8.0 0.00 0.00 0.00 48 1014.4
20260903040402 30 111 1.6 9.7 0.00 0.00 0.00 48 1014.3
20260903034903 31 112 3.2 9.7 0.00 0.00 0.00 48 1014.0
20260903034402 31 103 3.2 11.3 0.00 0.00 0.00 47 1014.0
20260903033903 31 114 3.2 11.3 0.00 0.00 0.00 46 1014.0
20260903031904 31 80 3.2 4.8 0.00 0.00 0.00 43 1013.6
20260903030902 31 130 1.6 4.8 0.00 0.00 0.00 42 1013.5
20260903030402 31 94 0.0 4.8 0.00 0.00 0.00 43 1013.4
20260903025903 31 103 1.6 4.8 0.00 0.00 0.00 42 1013.4
20260903025402 31 109 1.6 3.2 0.00 0.00 0.00 41 1013.4
20260903024403 32 99 1.6 3.2 0.00 0.00 0.00 40 1013.3
20260903023402 32 121 0.0 3.2 0.00 0.00 0.00 38 1013.2
20260903022903 32 131 0.0 4.8 0.00 0.00 0.00 38 1013.2
20260903022403 32 182 0.0 4.8 0.00 0.00 0.00 38 1013.2
20260903021403 32 168 0.0 4.8 0.00 0.00 0.00 39 1013.1
20260903020903 32 131 1.6 4.8 0.00 0.00 0.00 42 1013.1
20260903020403 32 117 3.2 4.8 0.00 0.00 0.00 43 1013.2
20260903015403 32 93 1.6 3.2 0.00 0.00 0.00 40 1013.1
20260903014903 33 98 1.6 3.2 0.00 0.00 0.00 37 1013.0
20260903014403 33 125 0.0 3.2 0.00 0.00 0.00 35 1013.1
20260903013902 33 238 0.0 3.2 0.00 0.00 0.00 35 1013.0
20260903013402 33 238 0.0 4.8 0.00 0.00 0.00 34 1012.9
20260903012903 33 235 3.2 4.8 0.00 0.00 0.00 35 1012.9
20260903012403 33 274 1.6 3.2 0.00 0.00 0.00 34 1012.9
20260903011903 33 280 0.0 3.2 0.00 0.00 0.00 34 1012.8
20260903011403 33 251 1.6 8.0 0.00 0.00 0.00 34 1012.8
20260903005902 33 233 3.2 8.0 0.00 0.00 0.00 34 1012.8
20260903005402 33 250 3.2 9.7 0.00 0.00 0.00 34 1012.8
20260903004402 33 230 3.2 4.8 0.00 0.00 0.00 37 1012.8
20260903003903 34 184 1.6 4.8 0.00 0.00 0.00 38 1012.9
20260903003403 34 231 1.6 8.0 0.00 0.00 0.00 39 1013.1
20260903001902 34 242 1.6 9.7 0.00 0.00 0.00 39 1013.0
20260903001403 34 307 3.2 9.7 0.00 0.00 0.00 38 1013.1
20260903000403 34 255 1.6 9.7 0.00 0.00 0.00 38 1013.0
20260902235403 34 335 1.6 4.8 0.00 0.00 0.00 38 1013.1
20260902234902 34 232 0.0 4.8 0.00 0.00 0.00 38 1013.1
20260902234403 34 335 0.0 4.8 0.00 0.00 0.00 38 1013.1
20260902232402 34 327 3.2 9.7 0.00 0.00 0.00 38 1013.1
20260902230902 35 276 1.6 4.8 0.00 0.00 0.00 36 1013.2
20260902224903 35 319 1.6 8.0 0.00 0.00 0.00 36 1013.5
20260902224403 35 204 1.6 8.0 0.00 0.00 0.00 36 1013.5
20260902223902 35 278 1.6 9.7 0.00 0.00 0.00 35 1013.5
20260902223403 35 165 3.2 9.7 0.00 0.00 0.00 35 1013.6
20260902222403 35 208 3.2 12.9 0.00 0.00 0.00 36 1013.7
20260902221903 35 2 3.2 11.3 0.00 0.00 0.00 36 1013.7
20260902220902 35 354 3.2 12.9 0.00 0.00 0.00 37 1013.8